Regional Weather Roundup
Issued by NWS Pendleton, OR

Home | Current Version | Previous Version | Text Only | Print | Product List | Glossary On
Versions: 1 2 3 4 5 6 7 8 9 10 11 12 13 14 15 16 17 18 19 20 21 22 23 24 25 26 27 28 29 30 31 32 33 34 35 36 37 38 39 40 41 42 43 44 45 46 47 48 49 50
000
ASUS46 KPDT 270825
RWRPDT
PENDLETON REGIONAL WEATHER ROUNDUP
NATIONAL WEATHER SERVICE PENDLETON OREGON
100 AM PDT TUE JUN 27 2017

NOTE: FAIR INDICATES FEW OR NO CLOUDS BELOW 12,000 FEET WITH NO
SIGNIFICANT WEATHER AND/OR OBSTRUCTIONS TO VISIBILITY.

# INDICATES UNOFFICIAL STATION AND DATA

WAZ520-270910-
EAST SLOPES OF WASHINGTON CASCADES

CITY            SKY/WX      TMP DP  RH  WIND    PRES   REMARKS
#BULLFROG       N/A         61  49  65  SW5     N/A
#CLE ELUM HS    N/A         60  49  67  NW6     29.86R
#CLE ELUM LAKE  N/A         57  47  69  CALM    29.87R
#ELK HTS DOT    N/A         62  61  97  W7      N/A
#NELSON 3SW     N/A         58  44  60  CALM    29.99S
#NILE           N/A         62  46  56  SW3     29.10S
#TEANAWAY 4NE   N/A         61  50  67  N2      N/A
#TROUT LAKE 1NE N/A         62  48  60  W6      29.83S
#TROUT LAKE 1E  N/A         62  47  58  W2      29.95R
$$

WAZ521-270910-
SIMCOE HIGHLANDS

CITY            SKY/WX      TMP DP  RH  WIND    PRES   REMARKS
#BICKLETON HS   N/A         60  52  75  SW3     29.56R
#CENTERVILLE 1SWN/A         62  51  67  W15     29.79R
#GOLDENDALE 1NE N/A         63  39  41  SW3     N/A
#GOLDENDALE 4W  N/A         63  19  18  W13     29.94R
#GOODNOE HILLS  N/A         66  52  61  W23     N/A
#LYLE 6NE       N/A         62  52  70  SW12    29.82R
#PITT 4SE       N/A         58  50  75  W14G26  29.85R
$$

WAZ026-270910-
KITTITAS VALLEY

CITY            SKY/WX      TMP DP  RH  WIND    PRES   REMARKS
ELLENSBURG AP   CLOUDY      65  47  52  NW20G26 29.85F
#ELLENSBURG CWU N/A         65  47  52  N6      29.71R
#ELLENSBURG 3NE N/A         63  49  60  W8      27.93S
#KITTITAS 3S    N/A         65  46  50  N2      29.76R
#MANASTASH RDG  N/A         62  61  97  N10     N/A
#ROCKY CYN DOT  N/A         63  46  54  NW14    N/A
#RYEGRASS DOT   N/A         61  47  60  W28G37  N/A
$$

WAZ027-270910-
YAKIMA VALLEY

CITY            SKY/WX      TMP DP  RH  WIND    PRES   REMARKS
SUNNYSIDE AP    CLOUDY      63  58  84  CALM    29.81R
YAKIMA AIRPORT  CLOUDY      73  46  38  NW10    29.81S
YAKIMA-VAGABOND MOCLDY      71  39  31  N14     29.82R
#DONALD 2NE     N/A         71  12  10  W12     28.64R
#GRANDVIEW      N/A         66  55  68  CALM    29.77R
#MABTON         N/A         66  57  73  CALM    29.78R
#MOXEE 2E       N/A         70  N/A N/A N12     29.75R
#NACHES 2SW     N/A         66  47  50  W13     29.83S
#OUTLOOK DOT    N/A         73  49  43  CALM    29.76R
#PARKER DOT     N/A         72  44  37  S16     29.79R
#TERRACE HTS    N/A         70  45  41  N7      29.70R
#TOPPENISH      N/A         73  48  41  CALM    29.67R
#I82 S UMTANUM RN/A         67  40  37  NW3     N/A
#UNION GAP DOT  N/A         71  45  39  N7      29.83R
#W YAKIMA       N/A         70  46  42  N2      29.74R
#WHITE SWAN 5E  N/A         70  50  49  CALM    29.74R
#WILEY CITY 3W  N/A         69  35  28  CALM    29.79R
#ZILLAH DOT     N/A         74  45  35  W9      N/A
$$

WAZ028-270910-
LOWER COLUMBIA BASIN...WASHINGTON

CITY            SKY/WX      TMP DP  RH  WIND    PRES   REMARKS
HANFORD         CLOUDY      75  41  29  NW18G25 29.79R
PASCO           MOCLDY      71  56  59  SW10    29.79R
PROSSER AWOS    N/A         66  57  73  CALM    29.83R
RICHLAND AWOS   MOCLDY      70  61  73  CALM    29.78R
#BENTON CITY    N/A         69  56  63  CALM    29.66R
#CONNELL 5N     N/A         67  58  73  CALM    29.72F
#CONNELL 5NW    N/A         67  41  39  CALM    29.68S
#ELTOPIA 6NW    N/A         67  60  78  CALM    28.77R
#KAHLOTUS       N/A         67  57  70  W14G26  29.72R
#KENNEWICK 3S   N/A         67  56  68  S7      29.75R
#PATERSON       N/A         69  55  61  NW9     29.76R
#PROSSER DOT    N/A         71  55  57  CALM    29.80R
#SAGEMOOR 2W    N/A         66  59  78  SW1     29.61R
#TOUCHET 2S     N/A         70  56  61  SW16G30 29.72F
#WEST PASCO     N/A         70  55  59  CALM    29.74R
$$

WAZ029-270910-
FOOTHILLS OF THE BLUES...WASHINGTON

CITY            SKY/WX      TMP DP  RH  WIND    PRES   REMARKS
WALLA WALLA AP  CLOUDY      69  58  68  S9      29.84R
#CLYDE 6NW      N/A         66  56  70  SW8     29.73R
#DAYTON SCHOOL  N/A         65  50  58  E5      29.85R
#DELANEY DOT    N/A         65  59  81  CALM    29.83R
#PLEASANT VIEW 1N/A         62  57  84  S8      29.75R
#PRESCOTT       N/A         63  61  93  CALM    29.76R
#WHITMAN COLLEGEN/A         69  57  66  S2      29.82R
#WAITSBURG 5S   N/A         62  57  84  S7      29.85R
#WAITSBURG 6SSE N/A         66  54  65  S7      29.77R
#WAITSBURG 8N   N/A         64  N/A N/A S8      29.80S
#WALLA WALLA 5E N/A         66  58  75  SW6     N/A
#WALLA WALLA U  N/A         70  57  63  CALM    29.78R
#WHITMAN MISSIONN/A         71  56  59  SW2     29.80R
$$

WAZ030-270910-
BLUE MOUNTAINS...WASHINGTON

CITY            SKY/WX      TMP DP  RH  WIND    PRES   REMARKS
$$

ORZ009-041-WAZ024-270910-
COLUMBIA RIVER GORGE

CITY            SKY/WX      TMP DP  RH  WIND    PRES   REMARKS
HOOD RIVER AP   MOCLDY      63  50  62  W7      29.94R
THE DALLES AP   PTCLDY      70  52  53  NW17G24 29.88R
#ARLINGTON AIRPON/A         67  52  59  W20     29.80R
#CELILO DOT     N/A         71  50  47  SW12    N/A
#LYLE           N/A         69  53  57  W13G33  29.89R
#MARYHILL       N/A         68  49  51  N16G24  29.74R
#RUFUS DOT      N/A         70  N/A N/A W21     N/A
#SMITHVILLE     N/A         68  53  59  W18G31  29.80R

$$

ORZ510-270910-
NORTH CENTRAL OREGON

CITY            SKY/WX      TMP DP  RH  WIND    PRES   REMARKS
#ANTELOPE       N/A         54  48  80  CALM    29.65R
#CHENOWITH 1W   N/A         51  35  54  NW14    N/A
#COW CYN RST AREN/A         61  50  67  CALM    N/A
#DUFUR          N/A         64  47  54  CALM    29.80R
#DUFUR 9E       N/A         60  51  72  NW5     29.86R
#GRASS VALLEY 1SN/A         60  52  75  SW8     29.96S
#MAUPIN SCHOOL  N/A         68  56  65  SW2     29.94R
#MORO SCHOOL    N/A         62  55  78  W6      30.01R
#SHANIKO 5WSW   N/A         59  47  64  N2      N/A
#SHANIKO 4NW    N/A         57  49  75  W9      29.98S
#TYGH VALLEY 2NEN/A         66  54  65  N6      29.81R
#WAPANITIA AIRPON/A         63  51  65  W12     29.83R
#WASCO DOT      N/A         65  53  65  W12     N/A
#WASCO 5NE      N/A         63  51  65  W15G25  29.80R
$$

ORZ511-270910-
CENTRAL OREGON

CITY            SKY/WX      TMP DP  RH  WIND    PRES   REMARKS
BEND AIRPORT    CLEAR       61  48  62  SW3     29.99F
MADRAS AIRPORT  CLEAR       55  50  83  N5      29.98S
PRINEVILLE AP   CLEAR       54  48  80  CALM    29.99S
REDMOND AIRPORT CLEAR       55  44  66  SE6     29.98S
#ASHWOOD SCHOOL N/A         60  52  75  CALM    29.93S
#BEND 1SW       N/A         60  49  67  SW2     N/A
#BEND-AWBREY    N/A         61  50  67  SW8     29.76F
#BEND-KIM LN    N/A         54  44  69  NW1     29.73S
#CULVER         N/A         60  52  75  CALM    29.72S
#CULVER 8W      N/A         62  52  70  CALM    29.98S
#LAKE BILLY CHINN/A         61  N/A N/A CALM    29.93R
#MADRAS 4S      N/A         57  21  24  S2      N/A
#POWELL BUTTE   N/A         62  49  62  W2      29.95F
#PRINEVILLE     N/A         59  50  72  CALM    29.88R
#PRINEVILLE 3N  N/A         56  52  86  E1      29.80R
#WARM SPRINGS   N/A         66  54  65  CALM    29.73R

$$


ORZ509-270910-
EAST SLOPES OF OREGON CASCADES

CITY            SKY/WX      TMP DP  RH  WIND    PRES   REMARKS
SISTERS AWOS    N/A         63  52  67  W6      29.97R
#BLUE BOX PASS  N/A         52  N/A N/A SW6     N/A
#CAMP SHERMAN   N/A         60  52  75  CALM    29.88R
#LA PINE 4NW    N/A         52  46  80  CALM    29.86S
#LAVA BUTTE DOT N/A         58  48  69  SE2     N/A
#SISTERS ODOT   N/A         35  26  69  CALM    N/A
#SISTERS 3N     N/A         58  50  75  SW2     30.00S
#SUNRIVER       N/A         57  50  77  S1      29.80F
#TUMALO 3W      N/A         60  47  62  S3      29.64F
#WANOGA BUTTE D N/A         57  39  51  W7      N/A

$$

ORZ044-270910-
LOWER COLUMBIA BASIN...OREGON

CITY            SKY/WX      TMP DP  RH  WIND    PRES   REMARKS
HERMISTON       MOCLDY      71  54  55  SW16G29 29.81R
#BOARDMAN SCHOOLN/A         69  54  59  S12     29.80R
#BOARDMAN 8SW   N/A         68  54  61  SW17    29.80R
#ECHO 8SW       N/A         70  52  53  W10     29.83R
#I-84 EX 198 DOTN/A         68  53  59  E12     N/A
#IONE SCHOOL    N/A         70  48  46  W7      29.81R
#UMATILLA       N/A         71  53  53  SW12    29.72R
$$

ORZ507-270910-
NORTHERN FOOTHILLS OF THE BLUES

CITY            SKY/WX      TMP DP  RH  WIND    PRES   REMARKS
PENDLETON AIRPT MOCLDY      67  55  65  VRB6    29.86R
#ADAMS 3WNW     N/A         62  57  84  W3      29.78R
#ATHENA         N/A         63  56  78  CALM    29.81
#CAYUSE         N/A         65  55  70  CALM    29.77
#HELIX SCHOOL   N/A         63  53  70  W6      29.78R
#HELIX 3N       N/A         63  53  70  W16     29.85R
#HOLDMAN 5SE    N/A         66  54  65  W7      29.85S
#HOLDMAN 6E     N/A         64  54  70  SW7     29.59R
#M-F GROVE ELEM N/A          0  -78  1  CALM    29.83R
#M-FREEWATER 5SEN/A         67  56  68  CALM    29.85R
#PENDLETON DNTN N/A         63  58  84  CALM    29.83S
#PDT AQUATIC CTRN/A         63  56  78  CALM    29.84S
#PDT SUNRIDGE   N/A         68  54  61  CALM    29.87R
#PILOT ROCK     N/A         65  53  65  CALM    29.89S
#TUTUILLA       N/A         62  55  78  CALM    29.92R
#UMAPINE 2E     N/A         71  56  59  S3      29.80R
#WESTON SCHOOL  N/A         67  52  59  W6      29.80

$$

ORZ508-270910-
SOUTHERN FOOTHILLS OF THE BLUES

CITY            SKY/WX      TMP DP  RH  WIND    PRES   REMARKS
LEXINGTON       MOCLDY      68  48  49  S8      29.92S
#AJAX           N/A         63  47  56  S7      30.07S
#CONDON 5W      N/A         58  50  75  CALM    29.95S
#HEPPNER EOC    N/A         63  51  65  SW2     29.73S
#LEXINGTON 2SE  N/A         67  49  52  CALM    29.85S
#MIKKALO        N/A         65  48  54  W8      30.02R
#OLEX 4N        N/A         68  52  57  W22     29.84S
#RUGGS 5NE      N/A         61  51  70  SW5     30.11S
#RUGGS 2SW      N/A         60  49  67  SW5     29.79S

$$

ORZ502-503-270910-
BLUE MOUNTAINS

CITY            SKY/WX      TMP DP  RH  WIND    PRES   REMARKS
MEACHAM         MOCLDY      51  48  89  CALM    29.96F
#BATTLE MTN DOT N/A         56  51  83  SE5     N/A
#CUTSFORTH PARK N/A          0  -78  1  CALM    29.77R
#GRANITE        N/A         47  43  86  CALM    29.96R
#GREENHORN 9SW  N/A         51  50  96  CALM    30.00F
#HARDMAN 10S    N/A         55  48  77  CALM    29.86S
#HEPPNER 15SE   N/A         55  49  80  CALM    29.89R
#LADD CYN SMT   N/A         53  51  93  E7      N/A
#LADD CREEK ODOTN/A         54  50  86  SW3     N/A
#N POWDER DOT   N/A         55  52  90  NW5     N/A
#PIKES PEAK     N/A         65  50  58  N20G26  27.99S
#SUMMERVILLE 5NWN/A         51  49  93  CALM    29.93F
#TOLLGATE       N/A         54  49  83  W1      29.86F
#TROY SCHOOL    N/A         63  53  70  CALM    29.64R
#UKIAH          N/A         50  48  93  CALM    29.74F
#WESTON 4E      N/A         62  52  70  S7      29.71R
$$

ORZ505-270910-
JOHN DAY BASIN

CITY            SKY/WX      TMP DP  RH  WIND    PRES   REMARKS
JOHN DAY        MOCLDY      60  52  75  CALM    29.98S
#JOHN DAY KJDY  N/A         60  N/A N/A CALM    30.45F
#ANTELOPE 9ESE  N/A         65  53  65  CALM    N/A
#DAYVILLE SCHOOLN/A         62  55  78  CALM    29.91S
#MITCHELL       N/A         58  57  96  CALM    30.13S
#MITCHELL 8NW   N/A         62  51  67  CALM    29.78R
#MONUMENT HS    N/A         60  56  87  CALM    29.89S
#MT. VERNON 5SE N/A         59  49  69  CALM    29.94F
#SPRAY SCHOOL   N/A         60  N/A N/A CALM    N/A
$$

ORZ506-270910-
OCHOCO AND JOHN DAY HIGHLANDS

CITY            SKY/WX      TMP DP  RH  WIND    PRES   REMARKS
#HORSE RIDGE DO N/A         50  40  68  CALM    N/A
#PAULINA ODOT   N/A         64  45  50  W7      N/A
#PINE MTN OBS   N/A         59  38  45  SW5     N/A
#PRAIRIE CITY   N/A         54  51  90  CALM    30.11F
#SENECA         N/A         55  N/A N/A CALM    N/A
#SENECA 9NW     N/A         52  47  83  CALM    29.76F
$$

ORZ049-270910-
GRANDE RONDE VALLEY

CITY            SKY/WX      TMP DP  RH  WIND    PRES   REMARKS
LA GRANDE       MOCLDY      55  48  77  N7      29.91F
#COVE           N/A         61  53  75  NE1     29.95F
#COVE SCHOOL    N/A         61  50  67  CALM    29.94F
#COVE 6NW       N/A         55  51  86  CALM    29.80F
#ELGIN 3N       N/A         54  50  86  CALM    29.90F
#ELGIN 1E       N/A         57  51  80  CALM    N/A
#IMBLER SCHOOL  N/A         55  51  86  CALM    29.89F
#ISLAND CITY 4N N/A         54  50  86  CALM    30.03R
#LA GRANDE-LEFFEN/A         56  53  90  SW2     29.93F
$$

ORZ050-270910-
WALLOWA COUNTY

CITY            SKY/WX      TMP DP  RH  WIND    PRES   REMARKS
JOSEPH AIRPORT  PTCLDY      55  41  59  NW8     29.96S
#ENTERPRISE HS  N/A         56  49  77  W2      29.65R
#IMNAHA SCHOOL  N/A         65  53  65  S3      29.89R
#IMNAHA 10S     N/A         59  51  75  S3      29.92R
#JOSEPH         N/A         58  53  83  CALM    29.95R
#JOSEPH 3N      N/A         50  43  77  NE3     29.98S
#JOSEPH 3W      N/A         55  48  77  N5      29.83S
#LOSTINE        N/A         51  47  86  CALM    29.59R
#LOSTINE 3SE    N/A         53  49  86  W1      29.98R
#MT HOWARD 8000 N/A         51  36  56  SW5     30.18F
#PROMISE 1S     N/A         59  50  72  CALM    29.83S
#WALLOWA LAKE   N/A         62  43  50  SW2     29.99F
#WALLOWA SCHOOL N/A         53  50  89  CALM    29.90S



$$



USA.gov is the U.S. government's official web portal to all federal, state and local government web resources and services.